"Time","Temp","Dewpoint","Humidity","Pressure","Direction","Speed","Gust","Precip","PrecipRate"
"00:04:57","58.2","47","66.1","29.96","308","3.6","13.2","0.00","0.00"
"00:09:57","58.1","46.8","66","29.96","314","4.2","10.8","0.00","0.00"
"00:14:57","58","46.7","66","29.96","326","5.6","25.3","0.00","0.00"
"00:19:57","57.9","46.3","65.3","29.96","333","7.4","16.1","0.00","0.00"
"00:24:57","57.9","46.2","65","29.96","332","4.6","15","0.00","0.00"
"00:29:57","57.8","46.3","65.5","29.96","337","3.1","8.1","0.00","0.00"
"00:34:57","57.5","46.4","66.5","29.96","283","2.3","7.2","0.00","0.00"
"00:39:58","57.2","46.5","67.6","29.96","288","2.4","4.8","0.00","0.00"
"00:44:58","57","46.9","68.9","29.96","282","2.7","7.2","0.00","0.00"
"00:49:58","56.7","47","70","29.96","327","4.7","13.2","0.00","0.00"
"00:54:58","56.6","47.1","70.7","29.96","297","4.3","9.6","0.00","0.00"
"00:59:57","56.3","47","71","29.96","292","3.9","8.4","0.00","0.00"
"01:04:56","56.3","47","71","29.96","283","2.6","7.2","0.00","0.00"
"01:09:59","56.1","47","71.3","29.96","302","1.8","6","0.00","0.00"
"01:14:57","56","46.9","71.6","29.96","327","3.5","10.8","0.00","0.00"
"01:19:56","55.9","46.9","71.7","29.96","321","3.1","10.8","0.00","0.00"
"01:24:56","55.8","46.9","71.9","29.96","309","2.2","8.4","0.00","0.00"
"01:29:56","55.7","46.8","72","29.97","333","2.4","4.8","0.00","0.00"
"01:34:56","55.6","46.7","72","29.97","345","2.8","7.2","0.00","0.00"
"01:39:58","55.6","46.7","72","29.97","334","2.7","8.4","0.00","0.00"
"01:44:58","55.4","46.5","71.9","29.98","322","3.3","7.2","0.00","0.00"
"01:49:58","55.4","46.5","72.1","29.98","341","2.3","10.8","0.00","0.00"
"01:54:58","55.3","46.2","71.3","29.98","333","3.4","10.4","0.00","0.00"
"01:59:58","55.3","46","70.8","29.98","332","3.4","8.4","0.00","0.00"
"02:04:57","55.3","45.6","69.7","29.98","325","3.6","8.4","0.00","0.00"
"02:09:56","55.3","45.1","68.4","29.98","324","3.1","7.2","0.00","0.00"
"02:14:58","55.3","44.9","68","29.98","354","2.8","7.2","0.00","0.00"
"02:19:58","55.3","44.8","67.9","29.98","131","2.9","6.9","0.00","0.00"
"02:24:58","55.3","44.5","66.9","29.98","304","4.5","19.6","0.00","0.00"
"02:29:58","55.3","44.1","66.1","29.98","319","4.9","13.2","0.00","0.00"
"02:34:58","55.3","43.9","65.5","29.98","323","3.8","10.8","0.00","0.00"
"02:39:56","55.3","43.7","65","29.98","338","3.4","12","0.00","0.00"
"02:44:56","55.2","43.6","65","29.99","347","2.7","10.4","0.00","0.00"
"02:49:56","55.1","43.4","64.7","29.99","337","2.4","9.6","0.00","0.00"
"02:54:56","55","43.2","64.5","29.99","327","3.6","12","0.00","0.00"
"02:59:48","55","43.1","64.2","29.99","334","3.6","11.5","0.00","0.00"
"03:04:57","54.9","43.4","65","29.99","297","2.5","6","0.00","0.00"
"03:09:56","54.8","43.4","65.4","29.99","336","2.1","8.4","0.00","0.00"
"03:14:58","54.6","43.5","66","29.99","319","2.3","6","0.00","0.00"
"03:19:57","54.4","43.4","66.3","29.99","338","2.9","16.1","0.00","0.00"
"03:24:57","54.2","43.5","67","29.99","338","4.1","12","0.00","0.00"
"03:29:57","54.1","43.4","67","29.99","331","3.3","8.1","0.00","0.00"
"03:34:57","54","43.3","67","29.99","335","2.8","10.8","0.00","0.00"
"03:39:59","53.9","43.3","67.2","29.99","326","3.2","8.4","0.00","0.00"
"03:44:58","53.8","43.3","67.4","29.99","308","2.6","8.1","0.00","0.00"
"03:49:59","53.7","43","67","29.99","340","4.5","13.2","0.00","0.00"
"03:54:56","53.7","42.8","66.4","29.99","319","4.7","12","0.00","0.00"
"03:59:58","53.6","42.9","67","29.99","347","3.2","7.2","0.00","0.00"
"04:04:58","53.6","42.5","66.1","29.99","311","5.6","15","0.00","0.00"
"04:09:57","53.5","42.6","66.3","29.99","295","2.3","7.2","0.00","0.00"
"04:14:57","53.4","42.6","66.7","29.99","332","2.9","12","0.00","0.00"
"04:19:58","53.2","42.5","66.8","29.99","345","3.5","10.8","0.00","0.00"
"04:24:56","53.2","42.1","66.2","29.99","326","5.6","17.3","0.00","0.00"
"04:29:58","53.2","42.1","66","29.99","325","3.6","11.5","0.00","0.00"
"04:34:56","53.2","42.1","66","29.99","340","5.7","16.1","0.00","0.00"
"04:39:59","53.2","42.1","66","29.99","339","7.5","24.2","0.00","0.00"
"04:44:57","53.1","42.1","66.3","29.99","306","4.3","13.2","0.00","0.00"
"04:49:58","53","42.2","66.8","29.99","343","3.9","14.4","0.00","0.00"
"04:54:56","52.8","42.1","67","29.99","334","5.3","18","0.00","0.00"
"04:59:58","52.8","41.9","66.5","29.99","336","6.5","18.4","0.00","0.00"
"05:04:57","52.8","42.3","67.4","29.99","329","5.1","18.4","0.00","0.00"
"05:09:56","52.6","42.6","68.6","29.99","326","5.7","13.2","0.00","0.00"
"05:14:56","52.5","42.1","67.8","30.00","335","6.6","16.1","0.00","0.00"
"05:19:58","52.4","42","67.8","30.00","321","4.8","15","0.00","0.00"
"05:24:59","52.3","41.9","67.8","30.00","316","5.5","15","0.00","0.00"
"05:29:57","52.2","42","68","30.01","318","5.2","12","0.00","0.00"
"05:34:59","52.1","42","68.3","30.01","326","4.5","15","0.00","0.00"
"05:39:58","51.9","41.9","68.6","30.01","344","4.5","12","0.00","0.00"
"05:44:56","51.8","42","69.2","30.02","315","3.9","12","0.00","0.00"
"05:49:58","51.7","42.6","71.1","30.02","323","4.9","15","0.00","0.00"
"05:54:59","51.5","42","70.2","30.02","335","4.5","12","0.00","0.00"
"05:59:57","51.3","41.9","70.2","30.03","324","4.2","13.2","0.00","0.00"
"06:04:57","51.2","41.7","70","30.03","317","3.4","10.8","0.00","0.00"
"06:09:57","51.1","41.7","70","30.03","342","5","16.1","0.00","0.00"
"06:14:56","51.3","41.8","70","30.03","322","5","13.2","0.00","0.00"
"06:19:58","51.2","41.9","70.4","30.03","302","4.2","10.4","0.00","0.00"
"06:24:59","51.1","42.1","71.3","30.03","326","4.4","10.8","0.00","0.00"
"06:29:57","50.9","41.8","71","30.03","315","4.2","13.2","0.00","0.00"
"06:34:59","50.8","41.7","71","30.03","317","5.9","15","0.00","0.00"
"06:39:59","50.8","41.6","70.7","30.03","323","5.1","16.1","0.00","0.00"
"06:44:57","50.8","41.5","70.5","30.03","326","5.3","12","0.00","0.00"
"06:49:58","50.8","41.7","70.8","30.03","324","5.5","18.4","0.00","0.00"
"06:54:56","50.7","41.7","71.1","30.03","342","4.9","13.2","0.00","0.00"
"06:59:59","50.7","42.3","73","30.04","323","4.8","12.7","0.00","0.00"
"07:04:58","50.4","42","72.7","30.04","320","3.9","14.4","0.00","0.00"
"07:09:58","50.3","41.6","72","30.04","313","3.2","12","0.00","0.00"
"07:14:58","50.2","41.6","72.2","30.04","334","3.8","11.5","0.00","0.00"
"07:19:56","50.1","41.8","73","30.04","319","3.1","13.2","0.00","0.00"
"07:24:57","50.2","41.7","72.6","30.04","333","3.7","13.2","0.00","0.00"
"07:29:56","50.4","41.8","72.2","30.05","328","4.1","8.4","0.00","0.00"
"07:34:57","50.6","41.9","72","30.05","300","3.3","9.6","0.00","0.00"
"07:39:56","50.8","42.1","72","30.05","336","4.7","16.1","0.00","0.00"
"07:44:58","51.1","42.2","71.6","30.05","337","4.7","13.2","0.00","0.00"
"07:49:59","51.3","42.2","71","30.05","330","4.7","13.2","0.00","0.00"
"07:54:56","51.6","42.4","70.6","30.05","330","4.6","10.8","0.00","0.00"
"07:59:58","51.9","42.5","70.4","30.06","325","4.6","10.8","0.00","0.00"
"08:04:58","52.1","42.7","70.4","30.06","318","3.9","10.8","0.00","0.00"
"08:09:56","52.3","42.9","70.1","30.06","344","4.8","13.2","0.00","0.00"
"08:14:56","52.6","43","69.8","30.07","346","3.6","12.7","0.00","0.00"
"08:19:57","53.1","43.5","69.8","30.07","4","2.4","12","0.00","0.00"
"08:24:58","53.5","43.4","68.5","30.07","329","4","11.5","0.00","0.00"
"08:29:56","53.6","43.4","68.2","30.07","341","4.1","10.8","0.00","0.00"
"08:34:57","53.9","43.7","68.2","30.07","345","3.9","12","0.00","0.00"
"08:39:57","54.1","43.7","67.7","30.07","331","3.1","7.2","0.00","0.00"
"08:44:58","54.2","43.7","67.6","30.07","309","4.1","10.8","0.00","0.00"
"08:49:59","54.4","44","67.6","30.07","314","4.7","16.1","0.00","0.00"
"08:54:57","54.7","44.1","67.3","30.07","338","4.9","15","0.00","0.00"
"08:59:58","55","44.1","66.9","30.08","316","3.5","10.8","0.00","0.00"
"09:04:58","55.3","44.5","67","30.08","341","4.2","12","0.00","0.00"
"09:09:57","55.4","44.2","66.2","30.08","331","7.1","19.6","0.00","0.00"
"09:14:56","55.3","44","65.8","30.09","340","6.4","16.8","0.00","0.00"
"09:19:58","55.4","43.8","65.1","30.09","344","6.7","18","0.00","0.00"
"09:24:59","55.5","44.2","65.8","30.09","337","5.5","18.4","0.00","0.00"
"09:29:57","55.8","44.5","65.7","30.09","342","5.7","16.1","0.00","0.00"
"09:34:58","56.3","45","65.7","30.08","339","4.8","17.3","0.00","0.00"
"09:39:57","56.6","44.4","63.6","30.08","329","4.9","18.4","0.00","0.00"
"09:44:58","56.8","44.5","63.4","30.09","329","4.9","19.6","0.00","0.00"
"09:49:56","56.7","43.8","62.1","30.09","336","7.3","19.6","0.00","0.00"
"09:54:57","56.6","43.8","62.1","30.09","309","4.8","25.2","0.00","0.00"
"09:59:59","56.5","42.9","60.4","30.09","341","12.7","25.3","0.00","0.00"
"10:04:59","56.3","43.2","61.5","30.09","331","8.1","25.3","0.00","0.00"
"10:09:57","56.6","43.7","62","30.09","320","6.9","16.1","0.00","0.00"
"10:14:57","57","43.8","61.3","30.09","328","7.6","20.7","0.00","0.00"
"10:19:58","57.1","43.5","60.5","30.09","347","8.5","18.4","0.00","0.00"
"10:24:59","57.2","44.1","61.4","30.09","328","6.9","17.3","0.00","0.00"
"10:29:57","57.5","43.9","60.5","30.09","331","5.5","17.3","0.00","0.00"
"10:34:59","57.9","44.3","60.5","30.09","335","6","13.2","0.00","0.00"
"10:39:58","58.5","44.6","59.9","30.09","328","5.9","17.3","0.00","0.00"
"10:44:59","58.7","44","58.3","30.09","301","6.3","17.3","0.00","0.00"
"10:49:57","58.6","43.5","57.2","30.09","330","6.9","17.3","0.00","0.00"
"10:54:58","59","44.8","59.3","30.09","308","5.3","16.1","0.00","0.00"
"10:59:59","59","45.1","59.8","30.10","299","5.9","13.2","0.00","0.00"
"11:04:59","59","45","59.6","30.10","298","6.4","16.1","0.00","0.00"
"11:09:57","59.1","45.5","60.7","30.10","302","4.8","12","0.00","0.00"
"11:14:57","59.4","45.1","59.1","30.10","323","6.2","16.1","0.00","0.00"
"11:19:58","59.5","44.9","58.5","30.10","331","7.7","16.1","0.00","0.00"
"11:24:59","59.5","44.2","57","30.10","347","7.3","17.3","0.00","0.00"
"11:29:56","59.7","44.7","57.4","30.10","307","6.3","17.3","0.00","0.00"
"11:34:58","60","45","57.6","30.10","334","5.3","14.4","0.00","0.00"
"11:39:57","60.6","45.5","57.4","30.10","328","5.3","15","0.00","0.00"
"11:44:58","60.9","44.8","55.5","30.10","329","6.2","16.1","0.00","0.00"
"11:49:56","60.7","43.8","53.8","30.10","328","7.7","18.4","0.00","0.00"
"11:54:57","60.6","44.3","54.9","30.10","355","5.7","17.3","0.00","0.00"
"11:59:59","60.6","44.5","55.2","30.10","316","5.5","17.3","0.00","0.00"
"12:04:58","60.9","44.6","55","30.10","306","5.4","17.3","0.00","0.00"
"12:09:57","61.3","44.6","54.3","30.10","329","5.6","18.4","0.00","0.00"
"12:14:56","61.3","43.9","52.8","30.10","327","6","12","0.00","0.00"
"12:19:58","61.6","44.4","53.3","30.10","276","5.3","13.2","0.00","0.00"
"12:24:59","61.9","44.7","53.2","30.10","333","4.5","13.2","0.00","0.00"
"12:29:57","62.3","44.9","53","30.10","331","4.7","15","0.00","0.00"
"12:34:58","62.4","44.7","52.2","30.10","310","5.7","15.6","0.00","0.00"
"12:39:57","62.3","44.1","51.4","30.10","304","5.8","19.2","0.00","0.00"
"12:44:59","62.2","44","51.4","30.10","315","6","19.6","0.00","0.00"
"12:49:56","62.3","43.1","49.4","30.10","320","5.4","17.3","0.00","0.00"
"12:54:57","62.6","43.8","50.2","30.10","336","6","16.1","0.00","0.00"
"12:59:59","62.9","44.6","51.3","30.10","332","6.1","18","0.00","0.00"
"13:04:59","63.1","44.9","51.5","30.09","322","4.5","16.8","0.00","0.00"
"13:09:58","63.6","44.6","50","30.09","318","5.1","17.3","0.00","0.00"
"13:14:57","64.1","43.9","47.8","30.09","306","6.4","15","0.00","0.00"
"13:19:59","64.1","43.5","47.1","30.09","314","5.3","15","0.00","0.00"
"13:24:56","64.2","42.8","45.7","30.09","302","6.6","19.6","0.00","0.00"
"13:29:58","64","43.9","48","30.09","289","5.6","18.4","0.00","0.00"
"13:34:56","64.4","43.6","46.8","30.08","330","6.6","19.6","0.00","0.00"
"13:39:59","64.5","43.6","46.6","30.08","313","4.4","13.2","0.00","0.00"
"13:44:56","64.9","45.7","49.8","30.08","297","5.2","15","0.00","0.00"
"13:49:58","65.1","45.2","48.4","30.07","283","4.3","12.7","0.00","0.00"
"13:54:59","65.1","44.8","47.8","30.07","265","3.9","11.5","0.00","0.00"
"13:59:57","65.5","44.5","46.7","30.07","326","5.5","12","0.00","0.00"
"14:04:56","66","44.9","46.5","30.07","321","4.2","13.2","0.00","0.00"
"14:09:59","66.3","43.4","43.6","30.07","274","4.9","13.2","0.00","0.00"
"14:14:58","66","43.2","43.6","30.07","307","6.6","20.7","0.00","0.00"
"14:19:59","66.4","43.8","44.1","30.06","297","5.9","15","0.00","0.00"
"14:24:57","66.7","43.6","43.2","30.06","304","5.8","18.4","0.00","0.00"
"14:29:58","66.8","44.3","44.1","30.06","298","5.8","18","0.00","0.00"
"14:34:56","67.2","44.9","44.7","30.05","275","5.8","18.4","0.00","0.00"
"14:39:59","67.4","45.3","45","30.05","285","5.8","18.4","0.00","0.00"
"14:44:56","67.4","44.8","44.1","30.05","297","4.2","10.8","0.00","0.00"
"14:49:59","67.7","44.7","43.5","30.04","312","6.8","16.1","0.00","0.00"
"14:54:56","67.7","44.6","43.3","30.04","294","4.2","10.8","0.00","0.00"
"14:59:58","67.6","44.2","42.9","30.04","341","5.6","16.1","0.00","0.00"
"15:04:57","68","45","43.6","30.04","341","6.4","16.1","0.00","0.00"
"15:09:56","68.2","43.7","41.1","30.04","345","8","20.7","0.00","0.00"
"15:14:59","68.2","43.4","40.7","30.04","333","6.7","19.6","0.00","0.00"
"15:19:56","68.3","43.6","40.9","30.04","334","7.5","23","0.00","0.00"
"15:24:57","68.3","42.8","39.7","30.04","319","7.5","19.2","0.00","0.00"
"15:29:59","68.1","42.1","38.8","30.04","343","9.2","21.9","0.00","0.00"
"15:34:56","68","42.3","39.3","30.04","334","5.9","20.7","0.00","0.00"
"15:39:59","68.3","42.9","39.7","30.04","338","5.2","16.8","0.00","0.00"
"15:44:56","68.6","43.1","39.7","30.04","340","7.4","17.3","0.00","0.00"
"15:49:58","68.8","44.6","41.8","30.04","319","4.2","15.6","0.00","0.00"
"15:54:59","68.7","41.2","36.8","30.04","332","8.1","18.4","0.00","0.00"
"15:59:56","68.4","41.8","38.1","30.04","323","5.8","17.3","0.00","0.00"
"16:04:55","68.7","41.9","37.7","30.04","337","5.7","15.6","0.00","0.00"
"16:09:59","68.8","41.6","37.3","30.04","345","7.2","18.4","0.00","0.00"
"16:14:58","68.8","42.4","38.4","30.04","306","7.1","17.3","0.00","0.00"
"16:19:59","68.7","42.3","38.4","30.04","343","4.1","15","0.00","0.00"
"16:24:56","69.1","43.9","40.3","30.04","298","4.5","18","0.00","0.00"
"16:29:58","69","42.4","38.1","30.04","308","5.4","18.4","0.00","0.00"
"16:34:59","69","42.8","38.7","30.04","326","5.2","16.1","0.00","0.00"
"16:39:58","69.1","43.8","40.1","30.04","294","3.9","10.8","0.00","0.00"
"16:44:57","69.3","43","38.7","30.04","333","4","15.6","0.00","0.00"
"16:49:58","69.6","44.7","40.9","30.04","257","2.4","6","0.00","0.00"
"16:54:56","69.6","42.4","37.3","30.04","271","3.9","9.6","0.00","0.00"
"16:59:58","69.4","43.2","38.7","30.04","335","5.9","16.1","0.00","0.00"
"17:04:57","69.1","42.3","37.8","30.04","330","6.3","13.2","0.00","0.00"
"17:09:56","68.8","42","37.8","30.04","333","6","15","0.00","0.00"
"17:14:59","68.7","43.2","39.6","30.04","299","3.7","15","0.00","0.00"
"17:19:56","68.8","43","39.3","30.04","331","4.1","12","0.00","0.00"
"17:24:58","68.8","43.5","40","30.04","332","3.7","11.5","0.00","0.00"
"17:29:56","68.7","43.4","40","30.05","330","4.6","12","0.00","0.00"
"17:34:57","68.7","43.3","39.9","30.05","326","5.1","16.1","0.00","0.00"
"17:39:57","68.4","43","39.7","30.05","302","5.2","17.3","0.00","0.00"
"17:44:58","68.2","42.5","39.4","30.06","308","4.9","17.3","0.00","0.00"
"17:49:56","68","42.3","39.3","30.06","283","4.4","12","0.00","0.00"
"17:54:57","67.8","42.9","40.5","30.06","319","3.8","10.8","0.00","0.00"
"17:59:59","67.3","42","39.8","30.06","332","4.5","12","0.00","0.00"
"18:04:58","66.8","42.1","40.6","30.06","313","3.3","10.4","0.00","0.00"
"18:09:57","66.5","42.1","41","30.06","335","2.2","6","0.00","0.00"
"18:14:57","66.1","42.3","41.9","30.06","334","3.7","8.4","0.00","0.00"
"18:19:58","65.6","41.9","42","30.06","321","3.3","13.2","0.00","0.00"
"18:24:56","65.3","42","42.7","30.06","333","5.1","13.2","0.00","0.00"
"18:29:58","65","42","43.1","30.06","328","2.8","8.1","0.00","0.00"
"18:34:48","64.7","42","43.5","30.06","288","3.3","8.4","0.00","0.00"
"18:39:59","64.4","42","44","30.06","318","2.5","8.1","0.00","0.00"
"18:44:57","64.2","41.9","44.2","30.07","326","2.3","7.2","0.00","0.00"
"18:49:59","63.9","41.8","44.5","30.07","285","3.1","7.2","0.00","0.00"
"18:54:59","63.6","41.9","45.2","30.07","320","3.5","8.4","0.00","0.00"
"18:59:58","63.3","41.8","45.4","30.07","307","3.1","8.4","0.00","0.00"
"19:04:57","63","42","46.2","30.07","313","2.8","8.4","0.00","0.00"
"19:09:57","62.6","42.2","47.2","30.07","352","1.6","4.8","0.00","0.00"
"19:14:57","62.2","42.5","48.5","30.07","355","1.6","3.6","0.00","0.00"
"19:19:59","61.8","42.5","49.2","30.07","355","1.2","3.6","0.00","0.00"
"19:24:58","61.4","42.5","49.8","30.07","355","1.3","3.6","0.00","0.00"
"19:29:56","61.1","42.7","50.7","30.08","355","0.9","3.6","0.00","0.00"
"19:34:59","60.7","42.6","51.2","30.08","355","1","3.5","0.00","0.00"
"19:39:59","60.3","42.7","52.2","30.08","351","0.6","3.6","0.00","0.00"
"19:44:57","60","42.6","52.6","30.08","350","0.2","1.2","0.00","0.00"
"19:49:56","59.6","42.6","53.3","30.08","350","0.1","1.2","0.00","0.00"
"19:54:42","59.3","42.8","54.3","30.08","350","0.1","1.2","0.00","0.00"
"19:59:57","58.9","42.9","55.2","30.09","350","0.4","2.4","0.00","0.00"
"20:04:57","58.6","42.7","55.7","30.09","350","0.3","2.4","0.00","0.00"
"20:09:56","58.3","42.8","56.3","30.09","350","0.3","2.4","0.00","0.00"
"20:14:57","58.1","42.7","56.5","30.10","350","0","1.2","0.00","0.00"
"20:19:59","58","43.8","59.1","30.10","350","0.3","2.4","0.00","0.00"
"20:24:58","57.7","44.5","61.4","30.10","350","0","1.2","0.00","0.00"
"20:29:56","57","45","64","30.10","350","0","1.2","0.00","0.00"
"20:34:58","56.3","44.6","64.8","30.10","350","0.3","1.2","0.00","0.00"
"20:39:58","55.6","43.8","64.5","30.10","350","0","0","0.00","0.00"
"20:44:57","55.2","43.3","64.3","30.10","350","0","0","0.00","0.00"
"20:49:59","54.8","43.6","65.7","30.10","350","0","0","0.00","0.00"
"20:54:57","54.5","44.1","67.8","30.10","350","0.3","1.2","0.00","0.00"
"20:59:56","54.2","44.1","68.5","30.12","350","0","0","0.00","0.00"
"21:04:56","53.8","44.3","70.2","30.12","350","0.1","1.2","0.00","0.00"
"21:09:59","53.4","44.2","71","30.12","350","0.3","2.4","0.00","0.00"
"21:14:56","53.2","44.4","72","30.12","350","0.3","2.4","0.00","0.00"
"21:19:58","53","44.4","72.4","30.12","350","1.3","2.4","0.00","0.00"
"21:24:56","52.9","45","74.5","30.12","350","1.5","2.4","0.00","0.00"
"21:29:59","52.7","45.3","76","30.12","350","1.3","2.4","0.00","0.00"
"21:34:58","52.4","44.9","75.5","30.12","350","0.4","2.3","0.00","0.00"
"21:39:58","52.2","44.4","74.5","30.12","350","0.2","1.2","0.00","0.00"
"21:44:56","52.3","44.1","73.4","30.13","350","0.1","1.2","0.00","0.00"
"21:49:59","52.4","44","73.1","30.13","350","0","1.2","0.00","0.00"
"21:54:57","52.3","43.9","73","30.13","350","0","0","0.00","0.00"
"21:59:59","52.2","44","73.5","30.13","350","0","1.2","0.00","0.00"
"22:04:59","52.1","43.8","73.2","30.13","350","0","1.2","0.00","0.00"
"22:09:59","52.2","43.6","72.4","30.13","350","0","1.2","0.00","0.00"
"22:14:56","52.5","43.5","71.3","30.13","350","0","1.2","0.00","0.00"
"22:19:58","52.8","43.8","71.4","30.12","350","0.5","3.6","0.00","0.00"
"22:24:56","52.8","44.2","72.4","30.12","350","1.3","3.6","0.00","0.00"
"22:29:58","52.7","43.8","71.6","30.12","350","1.4","3.6","0.00","0.00"
"22:34:56","52.8","43.9","71.7","30.12","350","0.8","3.6","0.00","0.00"
"22:39:56","52.8","44.4","73.1","30.12","350","0.1","1.2","0.00","0.00"
"22:44:58","52.6","44.5","73.8","30.13","350","0.5","1.2","0.00","0.00"
"22:49:48","52.5","44.5","74.2","30.13","350","0.3","1.2","0.00","0.00"
"22:54:58","52.4","44.6","74.9","30.13","350","0","1.2","0.00","0.00"
"22:59:57","52.3","44.1","73.5","30.13","350","0.2","2.4","0.00","0.00"
"23:04:56","52.3","44","73.2","30.13","350","0.2","1.2","0.00","0.00"
"23:09:56","52.3","44.2","73.8","30.13","350","0.6","2.4","0.00","0.00"
"23:14:56","52.3","44.3","74","30.13","350","0.4","1.2","0.00","0.00"
"23:19:57","52.3","44.3","74","30.12","350","0","1.2","0.00","0.00"
"23:24:59","52.3","44","73.3","30.12","350","0","1.2","0.00","0.00"
"23:29:57","52.3","44.1","73.4","30.13","350","0","0","0.00","0.00"
"23:34:56","52.3","43.9","73","30.13","350","0","1.2","0.00","0.00"
"23:39:59","52.3","44.1","73.5","30.13","350","0","1.2","0.00","0.00"
"23:44:57","52.2","44.4","74.6","30.13","350","0","0","0.00","0.00"
"23:49:59","52.1","45.3","77.7","30.13","350","0","0","0.00","0.00"
"23:54:58","52.1","45.8","79.2","30.13","350","0","0","0.00","0.00"
